map of KVBT home
KVBT - Airport
Location
City:  Bentonville, Arkansas, United States
Name:Bentonville Municipal/Louise M Thaden Field
ICAO:KVBT
FAA LID:VBT

Details
Type:Airport (Airfield)
Use:Public/Civil
Latitude:3620'43"N (36.345250)
Longitude:9413'10"W (-94.219335)
Datum:WGS 1984
Elevation:1298 ft (396 m)
Variation:1.47E (WMM2015v2 magnetic declination)
-0.08 annual change
Runways:1
Longest:4426 × 65 ft (1349 × 20 m), paved

Time
Time Zone:UTC-6 (DST-5)
Local Time:

Weather
METAR:KVBT 041356Z AUTO 22011KT 10SM CLR 16/14 A2975 RMK AO2 SLP070 T01610139

Related Locations
Nearby:
Farthest:YAUG: 10784 mi / 17356 km
Augusta [Augusta Airport], WA, AU

Find:

   beyond  
but within

Other Information
Maps:
NOTAMs:
Links:
Sources:

  
  • flag of United States
  • flag of Arkansas
  

Sectional Chart

Flight Planning
at skyvector.com

Satellite Image

Google Maps Satellite view

 

Copyright © 2004-2019 Karl L. Swartz. All rights reserved.
The Great Circle Mapper name and logo are trademarks of the Great Circle Mapper.
All other trademarks mentioned herein belong to their respective owners.
Please see credits for attibutions and further copyright information.

  Follow gcmap on Facebook Follow gcmap on Twitter GCmap on LinkedIn

hCard Microformat

Geo Microformat